AAL709 KPHX-MMGL

Flight info

Callsign AAL709
Flight time N/A
Altitude 35000
Route STRRM1 TUS J92 VYLLA DCT LOKRO DCT SESVA UJ27 AMULA AMULA1B
Aircraft A320/M-SDE3FGHIRWY/LB1

Departure

Time 2026-05-01 14:37
Airport Phoenix Sky Harbor International Airport (KPHX)

Arrival

Time N/A
Airport Guadalajara International Airport (MMGL)
Time Latitude Longitude Altitude Speed Heading
2026-05-01 14:17 33.43652 -112.00814 1149 ft 0 kts 270°
2026-05-01 14:23 33.43652 -112.00813 1149 ft 1 kts 270°
2026-05-01 14:24 33.43652 -112.00796 1149 ft 3 kts 270°
2026-05-01 14:24 33.43651 -112.00773 1149 ft 3 kts 270°
2026-05-01 14:24 33.43651 -112.00748 1149 ft 3 kts 270°
2026-05-01 14:24 33.43651 -112.00732 1149 ft 1 kts 269°
2026-05-01 14:25 33.43651 -112.00731 1149 ft 0 kts 269°
2026-05-01 14:29 33.43651 -112.00733 1149 ft 1 kts 269°
2026-05-01 14:30 33.43691 -112.00735 1149 ft 5 kts
2026-05-01 14:30 33.43732 -112.00734 1149 ft 7 kts 359°
2026-05-01 14:30 33.43768 -112.00736 1149 ft 8 kts 359°
2026-05-01 14:31 33.43885 -112.00784 1149 ft 10 kts 323°
2026-05-01 14:31 33.43904 -112.00852 1149 ft 6 kts 245°
2026-05-01 14:31 33.43888 -112.00906 1149 ft 8 kts 275°
2026-05-01 14:31 33.43895 -112.00981 1149 ft 10 kts 275°
2026-05-01 14:32 33.43898 -112.01075 1149 ft 12 kts 269°
2026-05-01 14:32 33.43899 -112.01186 1149 ft 14 kts 271°
2026-05-01 14:32 33.43897 -112.01316 1149 ft 17 kts 270°
2026-05-01 14:32 33.43898 -112.01464 1149 ft 19 kts 270°
2026-05-01 14:33 33.43898 -112.01605 1149 ft 17 kts 270°
2026-05-01 14:33 33.43899 -112.01713 1149 ft 12 kts 272°
2026-05-01 14:33 33.43952 -112.01780 1149 ft 11 kts 340°
2026-05-01 14:33 33.43976 -112.01861 1149 ft 11 kts 270°
2026-05-01 14:34 33.43976 -112.01964 1149 ft 13 kts 271°
2026-05-01 14:34 33.43974 -112.02086 1149 ft 16 kts 270°
2026-05-01 14:34 33.43973 -112.02225 1149 ft 18 kts 271°
2026-05-01 14:34 33.43974 -112.02382 1149 ft 20 kts 271°
2026-05-01 14:35 33.43976 -112.02546 1149 ft 18 kts 270°
2026-05-01 14:35 33.43978 -112.02628 1149 ft 6 kts 276°
2026-05-01 14:35 33.44011 -112.02663 1149 ft 8 kts 357°
2026-05-01 14:35 33.44066 -112.02662 1149 ft 7 kts 16°
2026-05-01 14:36 33.44084 -112.02625 1149 ft 0 kts 91°
2026-05-01 14:36 33.44082 -112.02484 1149 ft 48 kts 90°
2026-05-01 14:36 33.44083 -112.01782 1150 ft 120 kts 90°
2026-05-01 14:37 33.44078 -112.00531 1174 ft 174 kts 90°
2026-05-01 14:37 33.44072 -111.99025 1763 ft 181 kts 91°
2026-05-01 14:37 33.44063 -111.97523 2597 ft 181 kts 91°
2026-05-01 14:37 33.44045 -111.96014 3387 ft 179 kts 92°
2026-05-01 14:38 33.43956 -111.94475 3743 ft 192 kts 95°
2026-05-01 14:38 33.43823 -111.92832 4087 ft 206 kts 96°
2026-05-01 14:38 33.43694 -111.91060 4437 ft 221 kts 95°
2026-05-01 14:38 33.43577 -111.89140 4753 ft 241 kts 94°
2026-05-01 14:39 33.43292 -111.87103 5195 ft 257 kts 112°
2026-05-01 14:39 33.42240 -111.85383 5689 ft 267 kts 140°
2026-05-01 14:39 33.40697 -111.84089 6409 ft 272 kts 147°
2026-05-01 14:39 33.39099 -111.82851 7110 ft 277 kts 146°
2026-05-01 14:40 33.37504 -111.81497 7808 ft 281 kts 144°
2026-05-01 14:40 33.35746 -111.80397 8464 ft 286 kts 163°
2026-05-01 14:40 33.33754 -111.80263 9090 ft 290 kts 189°
2026-05-01 14:40 33.31794 -111.80813 9744 ft 293 kts 195°
2026-05-01 14:41 33.29817 -111.81507 10374 ft 297 kts 196°
2026-05-01 14:41 33.27837 -111.82161 10987 ft 301 kts 194°
2026-05-01 14:41 33.25756 -111.82755 11626 ft 305 kts 193°
2026-05-01 14:41 33.23670 -111.83293 12235 ft 308 kts 192°
2026-05-01 14:42 33.21586 -111.83816 12827 ft 311 kts 193°
2026-05-01 14:42 33.19456 -111.84361 13414 ft 314 kts 193°
2026-05-01 14:42 33.17311 -111.84924 13988 ft 317 kts 194°
2026-05-01 14:42 33.15181 -111.85648 14524 ft 318 kts 205°
2026-05-01 14:43 33.13204 -111.86857 15069 ft 319 kts 213°
2026-05-01 14:43 33.11312 -111.88242 15609 ft 321 kts 216°
2026-05-01 14:43 33.09422 -111.89691 16148 ft 323 kts 216°
2026-05-01 14:43 33.07520 -111.91131 16676 ft 325 kts 216°
2026-05-01 14:44 33.05574 -111.92554 17201 ft 328 kts 216°
2026-05-01 14:44 33.01879 -111.95124 18144 ft 334 kts 210°
2026-05-01 14:44 32.99612 -111.95940 18602 ft 346 kts 189°
2026-05-01 14:45 32.97213 -111.95674 19050 ft 357 kts 165°
2026-05-01 14:45 32.92636 -111.93173 20034 ft 364 kts 156°
2026-05-01 14:45 32.90357 -111.91810 20446 ft 367 kts 156°
2026-05-01 14:46 32.88195 -111.90237 20856 ft 373 kts 144°
2026-05-01 14:46 32.84452 -111.85861 21709 ft 380 kts 133°
2026-05-01 14:46 32.82695 -111.83496 22116 ft 382 kts 133°
2026-05-01 14:47 32.80927 -111.81109 22509 ft 385 kts 133°
2026-05-01 14:47 32.79145 -111.78783 22897 ft 387 kts 135°
2026-05-01 14:47 32.77269 -111.76417 23276 ft 389 kts 135°
2026-05-01 14:48 32.73506 -111.71727 24020 ft 394 kts 135°
2026-05-01 14:48 32.71622 -111.69354 24376 ft 396 kts 135°
2026-05-01 14:48 32.67823 -111.64531 25045 ft 402 kts 135°
2026-05-01 14:49 32.63964 -111.59649 25689 ft 407 kts 135°
2026-05-01 14:49 32.60072 -111.54730 26311 ft 411 kts 135°
2026-05-01 14:50 32.57460 -111.51435 26703 ft 415 kts 135°
2026-05-01 14:50 32.52142 -111.44751 27458 ft 421 kts 135°
2026-05-01 14:51 32.50124 -111.42216 27735 ft 423 kts 135°
2026-05-01 14:51 32.46033 -111.37082 28266 ft 428 kts 135°
2026-05-01 14:52 32.41916 -111.31929 28784 ft 432 kts 135°
2026-05-01 14:52 32.39850 -111.29336 29030 ft 435 kts 135°
2026-05-01 14:52 32.35703 -111.24134 29508 ft 439 kts 136°
2026-05-01 14:53 32.33586 -111.21501 29761 ft 440 kts 136°
2026-05-01 14:53 32.31479 -111.18877 30056 ft 440 kts 135°
2026-05-01 14:53 32.29377 -111.16250 30378 ft 439 kts 135°
2026-05-01 14:53 32.27277 -111.13630 30621 ft 441 kts 136°
2026-05-01 14:54 32.25167 -111.10990 30913 ft 440 kts 136°
2026-05-01 14:54 32.23053 -111.08341 31159 ft 441 kts 136°
2026-05-01 14:54 32.20967 -111.05743 31401 ft 441 kts 136°
2026-05-01 14:54 32.18850 -111.03118 31633 ft 441 kts 136°
2026-05-01 14:55 32.16726 -111.00488 31864 ft 442 kts 136°
2026-05-01 14:55 32.14605 -110.97861 32071 ft 443 kts 136°
2026-05-01 14:55 32.12388 -110.95330 32135 ft 445 kts 144°
2026-05-01 14:55 32.09833 -110.93268 32183 ft 442 kts 158°
2026-05-01 14:56 32.07009 -110.91969 32231 ft 436 kts 173°
2026-05-01 14:56 32.04022 -110.91508 32298 ft 428 kts 187°
2026-05-01 14:56 32.01067 -110.91641 32400 ft 426 kts 192°
2026-05-01 14:57 31.95065 -110.92197 32444 ft 438 kts 191°
2026-05-01 14:57 31.88978 -110.92501 33043 ft 437 kts 189°
2026-05-01 14:57 31.85944 -110.92585 33282 ft 436 kts 189°
2026-05-01 14:58 31.82912 -110.92685 33501 ft 435 kts 190°
2026-05-01 14:58 31.79885 -110.92818 33716 ft 435 kts 191°
2026-05-01 14:58 31.76862 -110.92976 33925 ft 434 kts 191°
2026-05-01 14:58 31.73824 -110.93139 34024 ft 437 kts 191°
2026-05-01 14:59 31.67660 -110.93437 34027 ft 448 kts 190°
2026-05-01 14:59 31.64542 -110.93569 34281 ft 446 kts 190°
2026-05-01 14:59 31.61451 -110.93697 34534 ft 445 kts 190°
2026-05-01 15:00 31.56317 -110.93928 34901 ft 443 kts 191°
2026-05-01 15:00 31.52225 -110.94126 35073 ft 445 kts 191°
2026-05-01 15:01 31.45963 -110.94423 35065 ft 454 kts 190°
2026-05-01 15:01 31.40669 -110.94661 35064 ft 462 kts 190°
2026-05-01 15:02 31.34413 -110.94617 35038 ft 482 kts 179°
2026-05-01 15:02 31.32197 -110.94024 35015 ft 495 kts 168°
2026-05-01 15:02 31.28003 -110.91593 35059 ft 510 kts 154°
2026-05-01 15:03 31.21987 -110.87052 35066 ft 517 kts 151°
2026-05-01 15:03 31.15936 -110.82591 35059 ft 516 kts 154°
2026-05-01 15:04 31.09733 -110.78360 35057 ft 516 kts 155°
2026-05-01 15:04 31.03566 -110.74033 35057 ft 516 kts 154°
2026-05-01 15:05 30.97449 -110.69643 35052 ft 516 kts 154°
2026-05-01 15:05 30.91288 -110.65306 35020 ft 516 kts 154°
2026-05-01 15:06 30.85135 -110.60998 35015 ft 516 kts 154°
2026-05-01 15:06 30.78980 -110.56677 35031 ft 516 kts 154°
2026-05-01 15:07 30.72830 -110.52345 35022 ft 516 kts 154°
2026-05-01 15:07 30.66660 -110.48043 35032 ft 516 kts 155°
2026-05-01 15:08 30.60504 -110.43730 35050 ft 516 kts 155°
2026-05-01 15:08 30.54334 -110.39405 35055 ft 517 kts 155°
2026-05-01 15:09 30.48172 -110.35121 35070 ft 517 kts 155°
2026-05-01 15:09 30.42033 -110.30842 35072 ft 517 kts 155°
2026-05-01 15:10 30.35864 -110.26567 35068 ft 515 kts 154°
2026-05-01 15:10 30.26685 -110.20180 35064 ft 511 kts 154°
2026-05-01 15:11 30.17562 -110.13888 35022 ft 507 kts 154°
2026-05-01 15:12 30.11507 -110.09711 34981 ft 506 kts 154°
2026-05-01 15:12 30.02434 -110.03437 34970 ft 506 kts 154°
2026-05-01 15:14 29.87238 -109.93000 34961 ft 509 kts 155°
2026-05-01 15:14 29.78128 -109.86744 34956 ft 511 kts 154°
2026-05-01 15:15 29.65878 -109.78357 35013 ft 511 kts 154°
2026-05-01 15:16 29.53661 -109.70031 35056 ft 510 kts 155°
2026-05-01 15:18 29.38424 -109.59661 35030 ft 507 kts 155°
2026-05-01 15:19 29.26251 -109.51431 34955 ft 506 kts 155°
2026-05-01 15:19 29.17199 -109.45286 34966 ft 506 kts 155°
2026-05-01 15:20 29.08062 -109.39142 34989 ft 505 kts 155°
2026-05-01 15:21 29.02037 -109.35102 34992 ft 505 kts 155°
2026-05-01 15:21 28.95939 -109.30998 35004 ft 505 kts 155°
2026-05-01 15:22 28.86902 -109.24920 34986 ft 504 kts 156°
2026-05-01 15:22 28.80849 -109.20874 34962 ft 503 kts 155°
2026-05-01 15:23 28.74826 -109.16809 34921 ft 503 kts 155°
2026-05-01 15:23 28.68791 -109.12785 34894 ft 502 kts 156°
2026-05-01 15:24 28.62736 -109.08778 34902 ft 502 kts 156°
2026-05-01 15:24 28.56700 -109.04760 34901 ft 504 kts 155°
2026-05-01 15:25 28.50643 -109.00720 34948 ft 503 kts 156°
2026-05-01 15:25 28.44605 -108.96700 34990 ft 503 kts 155°
2026-05-01 15:26 28.38571 -108.92687 34988 ft 501 kts 156°
2026-05-01 15:26 28.32595 -108.88713 34984 ft 500 kts 156°
2026-05-01 15:27 28.26556 -108.84733 34961 ft 498 kts 156°
2026-05-01 15:28 28.17580 -108.78791 34900 ft 498 kts 156°
2026-05-01 15:28 28.11582 -108.74852 34896 ft 497 kts 156°
2026-05-01 15:29 28.02601 -108.68935 34898 ft 498 kts 156°
2026-05-01 15:30 27.91599 -108.61678 34922 ft 499 kts 157°
2026-05-01 15:31 27.79149 -108.51937 34983 ft 511 kts 143°
2026-05-01 15:31 27.73934 -108.46449 34985 ft 511 kts 143°
2026-05-01 15:32 27.63368 -108.35807 34931 ft 510 kts 144°
2026-05-01 15:34 27.48338 -108.20670 34898 ft 510 kts 144°